Home   Weather   Schwabach   Past weeks

Flag for Germany Past Weather in Schwabach, Bavaria, Germany — Yesterday and Last 2 Weeks

45 °F


Feels Like: 45 °F
Forecast: 40 / 56 °F
Wind: 1 mph from North

Location: Nuernberg

Current Time: Oct 27, 2016 at 5:02:23 AM

Latest Report: Oct 27, 2016 at 4:20 AM

Visibility: N/A

Pressure: 30.45 "Hg

Humidity: 100%

Dew Point: 45 °F

Location of SchwabachLocation

Past Weather in Schwabach — Graph


Schwabach Temperature Yesterday

Maximum temperature yesterday: 52 °F (at 3:20 PM)
Minimum temperature yesterday: 43 °F (at 8:50 PM)
Average temperature yesterday: 47 °F

High & Low Weather Summary for the Past Weeks

High66 °F (Oct 16, 2:20 PM)100% (Oct 12, 3:20 AM)30.45 "Hg (Oct 12, 3:20 AM)
Low30 °F (Oct 12, 7:20 AM)52% (Oct 16, 2:50 PM)29.71 "Hg (Oct 14, 6:20 PM)
Average47 °F92%30.04 "Hg
* Reported Oct 12 3:20 AM — Oct 27 3:50 AM, Schwabach, Weather by CustomWeather, © 2016

Note: Actual official high and low records may vary slightly from our data, if they occured in-between our weather recording intervals... More about our weather records


Schwabach Weather History for the Previous 24 Hours

Scroll right to see more
Time TempWeatherWind HumidityBarometerVisibility
3:50 AM
Thu, Oct 27
45 °FFog.1 mph100%30.42 "HgN/A
3:20 AM46 °FPassing clouds.1 mph100%30.42 "HgN/A
2:50 AM46 °FPassing clouds.1 mph100%30.42 "HgN/A
2:20 AM46 °FPassing clouds.1 mph100%30.45 "Hg6 mi
1:50 AM45 °FPassing clouds.1 mph100%30.42 "Hg6 mi
1:20 AM45 °FFog.2 mph100%30.42 "Hg6 mi
12:50 AM45 °FFog.1 mph100%30.42 "Hg6 mi
12:20 AM43 °FFog.1 mph100%30.42 "Hg5 mi
11:50 PM
Wed, Oct 26
43 °FPassing clouds.No wind100%30.42 "Hg5 mi
11:20 PM43 °FPartly cloudy.No wind100%30.42 "Hg5 mi
10:50 PM43 °FPassing clouds.No wind100%30.42 "Hg6 mi
10:20 PM45 °FFog.1 mph100%30.39 "HgN/A
9:50 PM45 °FPassing clouds.1 mph100%30.39 "HgN/A
9:20 PM45 °FFog.No wind100%30.39 "HgN/A
8:50 PM43 °FFog.1 mph100%30.39 "HgN/A
8:20 PM45 °FFog.No wind100%30.39 "HgN/A
7:50 PM45 °FFog.1 mph100%30.36 "HgN/A
7:20 PM46 °FFog.1 mph93%30.36 "HgN/A
6:50 PM46 °FFog.1 mph100%30.36 "HgN/A
6:20 PM48 °FPassing clouds.No wind94%30.36 "HgN/A
5:50 PM48 °FScattered clouds.5 mph94%30.36 "HgN/A
5:20 PM50 °FPartly sunny.8 mph88%30.36 "HgN/A
4:50 PM50 °FPartly sunny.7 mph88%30.36 "HgN/A
4:20 PM50 °FPartly sunny.6 mph94%30.36 "HgN/A
3:50 PM50 °FPartly sunny.6 mph94%30.33 "Hg6 mi
3:20 PM52 °FPartly sunny.6 mph88%30.36 "Hg6 mi
2:50 PM50 °FScattered clouds.7 mph94%30.36 "Hg6 mi
2:20 PM50 °FBroken clouds.7 mph94%30.36 "Hg6 mi
1:50 PM50 °FPartly sunny.7 mph94%30.36 "Hg6 mi
1:20 PM50 °FPartly sunny.6 mph94%30.36 "Hg6 mi
12:50 PM48 °FLow clouds.6 mph100%30.36 "Hg5 mi
12:20 PM48 °FLow clouds.6 mph100%30.36 "Hg5 mi
11:50 AM48 °FLow clouds.5 mph100%30.36 "Hg4 mi
11:20 AM48 °FLow clouds.2 mph100%30.33 "Hg4 mi
10:50 AM48 °FLow clouds.1 mph100%30.36 "Hg4 mi
10:20 AM46 °FLow clouds.1 mph100%30.36 "Hg4 mi
9:50 AM46 °FDrizzle. Fog.No wind100%30.33 "Hg3 mi
9:20 AM46 °FFog.1 mph100%30.33 "Hg3 mi
8:50 AM46 °FFog.1 mph100%30.33 "Hg3 mi
8:20 AM46 °FFog.1 mph100%30.33 "Hg2 mi
7:50 AM46 °FCool.1 mph100%30.33 "Hg1 mi
7:20 AM46 °FFog.1 mph100%30.33 "Hg1 mi
6:50 AM46 °FFog.2 mph100%30.33 "Hg1 mi
6:20 AM46 °FFog.5 mph100%30.30 "Hg0 mi
5:50 AM46 °FFog.5 mph100%30.30 "Hg1 mi
5:20 AM46 °FFog.3 mph100%30.30 "Hg2 mi
Weather by CustomWeather, © 2016

See weather overviewHow to use our weather pages